SCP
0 0 0 0 0 0 0 0 0 0 0 0 0 0 1 1 1 1 1 1 1 1 1 1 1 1 1 1 1 1 1 1 1 1 1 1 1 1 1 1 1 1 1 1
0 0 0 0 0 0 0 0 0 0 0 0 0 0 1 1 1 1 1 1 1 1 1 1 1 1 1 1 1 1 1 1 1 1 1 1 1 1 1 1 1 1 1 1
0 0 0 0 0 0 0 0 0 0 0 0 0 1 1 1 1 1 1 1 1 1 1 1 1 1 1 1 1 1 1 1 1 1 1 1 1 1 1 1 1 1 1 1
0 0 0 0 0 0 0 0 0 0 0 0 0 1 1 1 1 1 1 1 1 1 1 1 1 1 1 1 1 1 1 1 1 1 1 1 1 1 1 1 1 1 1 1
0 0 0 0 0 0 0 0 0 0 0 0 1 1 1 1 1 1 1 1 1 1 1 1 1 1 1 1 1 1 1 1 1 1 1 1 1 1 1 1 1 1 1 1
0 0 0 0 0 0 0 0 0 0 0 1 1 1 1 1 1 1 1 1 1 1 1 1 1 1 1 1 1 1 1 1 1 1 1 1 1 1 1 1 1 1 1 1
0 0 0 0 0 0 0 0 0 0 0 1 1 1 1 1 1 1 1 1 1 1 1 1 1 1 1 1 1 1 1 1 1 1 1 1 1 1 1 1 1 1 1 1
0 0 0 0 0 0 0 0 0 0 1 1 1 1 1 1 1 1 1 1 1 1 1 1 1 1 1 1 1 1 1 1 1 1 1 1 1 1 1 1 1 1 1 1
0 0 0 0 0 0 0 0 0 0 1 1 1 1 1 1 1 1 1 1 1 1 1 1 1 1 1 1 1 1 1 1 1 1 1 1 1 1 1 1 1 1 1 1
0 0 0 0 0 0 0 0 0 0 1 1 1 1 1 1 1 1 1 1 1 1 1 1 1 1 1 1 1 1 1 1 1 1 1 1 1 1 1 1 1 1 1 1
1 1 1 1 0 0 0 0 0 0 0 1 1 1 1 1 1 1 1 1 1 1 1 1 1 1 1 1 1 1 1 1 1 1 1 1 1 1 1 1 1 1 1 1
1 1 1 0 0 0 0 0 0 0 1 1 1 1 1 1 1 1 1 1 1 1 1 1 1 1 1 1 1 1 1 1 1 1 1 1 1 1 1 1 1 0 0 1
0 0 0 0 0 0 0 0 0 0 0 0 1 1 1 1 1 1 1 1 1 1 1 1 1 1 1 1 1 1 1 1 1 1 1 1 1 1 1 1 1 0 0 0
0 0 0 0 0 0 0 0 0 0 0 0 1 1 1 1 1 1 1 1 1 1 1 1 1 1 1 1 1 1 1 1 1 1 1 1 1 1 1 1 1 1 0 0
0 0 0 0 0 0 0 0 0 0 0 1 1 1 1 1 1 1 1 1 1 1 1 1 1 1 1 1 1 1 0 0 0 0 1 1 1 1 1 1 1 1 1 0
0 0 0 0 0 0 0 0 0 0 1 1 1 1 1 1 1 1 1 1 1 1 1 1 1 1 1 0 0 0 0 0 0 0 0 1 1 1 1 1 1 1 1 0
0 0 0 0 0 0 0 0 1 1 1 1 1 1 1 1 1 1 1 1 1 1 1 1 1 1 1 0 0 0 0 0 0 0 0 1 1 1 1 1 1 1 1 0
1 1 1 1 1 1 1 1 1 1 1 1 1 1 1 1 1 1 1 1 1 1 1 1 1 0 0 0 0 0 0 0 0 0 0 1 1 1 1 1 0 0 0 0
1 1 1 1 1 1 1 1 1 1 1 1 1 1 1 1 1 1 1 1 1 1 0 0 0 0 0 0 0 0 0 0 0 0 0 0 0 0 0 0 0 0 0 0
1 1 1 1 1 1 1 1 1 1 1 1 1 1 1 1 1 1 1 1 1 1 0 0 0 0 0 0 0 0 0 0 0 0 0 0 0 0 0 0 0 0 0 0
1 1 1 1 1 1 1 1 1 1 1 1 1 1 1 1 1 1 1 1 1 0 0 0 0 0 0 0 0 0 0 0 0 0 0 0 0 0 0 0 0 0 0 0
1 1 1 1 1 1 1 1 1 1 1 1 1 1 1 1 1 1 1 1 0 0 0 0 0 0 0 0 0 0 0 0 0 0 0 0 0 0 0 0 0 0 0 0
1 1 1 1 1 1 1 1 1 1 1 1 1 1 1 1 1 0 0 0 0 0 0 0 0 0 0 0 0 0 0 0 0 0 0 0 0 0 0 0 0 0 0 0
1 1 1 1 1 1 1 1 1 1 1 1 1 1 1 0 0 0 0 0 0 0 0 0 0 0 0 0 0 0 0 0 0 0 0 0 0 0 0 0 0 0 0 0
1 1 1 1 1 1 1 1 1 1 1 1 0 0 0 0 0 0 0 0 0 0 0 0 0 0 0 0 0 0 0 0 0 0 0 0 0 0 0 0 0 0 0 0
1 1 1 1 1 1 0 0 0 0 0 0 0 0 0 0 0 0 0 0 0 0 0 0 0 0 0 0 0 0 0 0 0 0 0 0 0 0 0 0 0 0 0 0
1 1 1 1 1 0 0 0 0 0 0 0 0 0 0 0 0 0 0 0 0 0 0 0 0 0 0 0 0 0 0 0 0 0 0 0 0 0 0 0 0 0 0 0
Wind_Speed
9 9 9 8 9 9 8 6 4 2 2 5 2 4 5 5 5 4 4 4 4 3 4 4 3 3 2 1 1 1 1 1 1 1 1 1 2 2 2 3 3 2 3 3
11 10 9 9 10 10 8 6 5 4 3 2 3 5 5 6 5 4 3 3 3 3 4 3 3 2 2 1 1 1 1 0 0 0 0 1 2 2 2 2 3 3 3 3
11 11 12 12 9 8 7 6 6 3 1 2 3 3 4 5 5 4 3 2 2 2 2 2 3 2 2 1 2 2 1 1 1 1 1 1 2 2 2 3 3 3 3 3
10 9 12 7 7 7 6 4 3 2 2 2 3 5 6 5 5 4 3 2 2 2 2 2 2 2 2 1 2 2 1 1 2 2 2 2 2 2 2 3 3 3 4 4
8 10 9 7 6 5 4 1 2 2 2 3 3 5 6 6 6 5 4 3 2 3 3 3 3 3 3 3 2 2 2 2 2 2 3 3 3 3 2 3 4 4 4 3
8 10 9 5 3 3 4 3 2 1 1 2 2 1 3 6 6 5 4 4 3 3 4 4 4 3 2 2 2 2 2 2 2 2 3 3 2 3 3 3 4 4 4 3
11 10 6 3 4 5 5 1 3 3 2 2 3 2 5 5 5 5 4 4 4 4 4 4 4 4 3 3 3 3 4 3 2 2 3 2 2 2 3 4 4 4 4 4
9 9 5 4 4 2 4 4 3 3 3 3 4 6 6 5 5 4 4 4 4 3 4 4 4 3 3 3 4 4 4 3 2 2 4 3 2 3 3 4 4 4 4 4
3 2 1 3 4 4 4 3 3 3 3 3 3 4 5 5 4 3 3 3 3 3 3 3 3 2 2 2 3 3 4 4 3 3 3 2 3 3 3 3 4 4 3 4
3 1 1 2 3 3 3 3 3 3 2 2 2 3 4 4 4 3 3 2 2 2 3 3 3 2 2 2 3 3 3 4 3 3 3 2 2 2 2 3 3 4 3 4
3 1 1 1 3 3 3 3 3 2 2 2 2 2 3 3 3 2 2 2 2 2 2 2 2 2 2 2 2 3 4 4 4 3 3 2 2 1 2 1 2 3 3 4
3 1 2 0 1 2 2 2 2 1 1 1 1 3 3 2 3 2 2 2 1 1 1 1 1 2 2 2 3 3 4 4 4 3 3 2 2 1 2 1 1 1 2 3
2 2 1 1 2 2 2 1 0 0 1 1 1 2 3 2 2 2 1 1 1 1 1 1 1 2 3 3 3 4 4 4 4 4 4 3 2 2 2 2 2 1 2 3
2 1 1 1 2 2 1 1 0 0 1 1 2 2 2 2 2 2 1 0 0 0 1 1 2 3 4 4 4 5 5 3 4 4 4 4 3 3 3 3 2 2 2 3
1 0 1 2 2 1 1 1 1 2 2 2 3 2 2 2 1 1 0 0 1 1 1 2 2 3 4 4 5 6 5 3 3 4 4 4 4 3 4 4 3 3 2 2
1 1 1 1 1 1 2 2 2 2 2 3 3 2 2 1 1 0 0 0 1 2 2 2 3 3 4 4 5 5 4 4 4 4 4 3 3 4 3 3 3 3 3 3
2 2 2 2 2 2 2 2 2 2 1 2 2 2 2 1 1 0 1 1 1 1 2 2 2 3 4 4 5 5 5 4 5 4 3 3 3 3 3 4 3 2 2 2
2 2 2 2 2 1 1 1 1 1 1 1 2 2 2 1 1 1 1 0 1 1 2 2 3 4 4 3 4 5 5 5 3 3 3 3 3 3 3 3 4 4 2 1
1 1 1 1 1 1 1 1 1 1 1 1 2 2 1 0 1 1 1 1 1 2 2 2 3 5 4 3 5 4 5 5 4 2 2 2 3 3 3 4 4 4 3 2
0 1 1 1 2 1 2 2 2 1 1 1 2 2 1 1 1 1 1 1 1 2 2 2 3 4 4 3 5 6 5 5 4 3 3 3 3 3 4 4 4 4 3 3
1 1 1 2 2 2 2 1 1 1 2 2 2 1 1 1 1 1 2 2 1 1 2 3 2 2 4 5 6 6 4 4 4 3 3 4 3 4 4 4 4 4 4 4
1 1 1 2 2 2 2 2 1 1 1 1 1 1 1 1 1 1 2 2 1 1 3 2 2 3 4 6 5 4 4 4 4 3 3 3 3 4 4 4 4 4 4 4
1 1 1 2 2 2 2 2 1 1 0 1 1 1 1 1 2 2 2 1 1 1 2 2 3 3 4 4 5 4 4 5 4 4 3 2 3 3 3 3 3 3 3 4
1 1 1 1 1 1 1 1 1 1 0 0 1 1 2 2 2 1 1 0 1 2 2 1 1 2 4 4 4 4 4 4 4 4 4 3 3 2 3 3 3 3 3 4
0 0 0 1 1 1 1 1 1 1 1 1 1 1 1 1 1 1 1 1 0 1 1 1 2 3 3 4 3 3 3 4 4 4 4 4 4 3 3 3 3 3 3 3
1 1 1 2 1 1 1 1 1 1 1 0 1 1 1 1 1 1 1 1 1 1 1 1 1 2 2 3 3 3 3 3 3 3 4 4 4 4 3 3 4 3 3 3
1 1 1 2 1 1 1 0 0 1 1 1 0 1 1 1 1 1 2 2 2 2 2 2 2 2 2 3 3 2 2 2 2 3 3 3 3 3 3 4 3 3 3 3
Wind_Direction
269 270 271 268 269 267 267 276 278 260 230 209 211 136 125 120 114 103 116 117 104 106 117 119 119 120 117 127 99 104 134 168 169 198 252 295 306 308 315 309 301 300 295 288
266 265 259 255 254 257 263 273 253 226 242 176 129 115 127 130 129 115 96 94 96 98 112 121 129 132 138 167 122 90 67 23 104 211 267 295 296 305 312 306 300 292 291 297
266 265 264 253 253 258 261 269 280 268 234 103 105 125 125 128 129 123 117 105 80 87 84 107 110 106 93 77 68 73 60 22 22 330 305 300 303 320 312 307 302 293 288 287
264 263 258 259 252 257 260 261 292 341 56 105 114 108 109 106 110 114 103 75 77 80 75 96 98 86 58 59 65 52 19 356 5 334 304 293 293 292 290 291 288 284 281 284
261 256 252 258 270 265 250 225 13 22 38 61 104 120 115 99 95 93 92 74 63 76 72 61 71 73 70 38 34 30 17 359 336 298 294 298 299 297 288 283 283 280 281 280
253 260 257 260 281 296 257 204 42 47 53 71 90 173 104 89 92 89 82 78 65 76 75 69 53 44 55 39 8 355 339 319 303 291 291 294 300 296 293 283 283 285 283 277
247 256 261 305 307 278 257 65 42 61 74 78 77 65 97 100 96 92 80 73 67 69 69 70 61 54 41 20 1 356 344 336 326 314 292 281 283 286 288 284 285 284 286 280
247 250 253 337 332 16 49 41 41 46 70 80 84 99 105 105 102 101 92 80 69 71 72 78 72 62 46 14 357 350 338 327 320 305 295 301 293 281 280 281 279 279 281 286
261 252 85 36 41 58 69 51 35 40 73 103 105 109 114 109 99 89 82 79 74 69 70 80 75 57 35 8 346 337 335 325 314 301 286 291 290 288 287 290 293 295 293 292
242 232 352 37 25 34 47 33 43 62 64 86 101 112 110 114 112 104 91 80 78 76 59 55 67 54 31 4 341 333 325 316 308 299 293 305 295 304 311 313 309 304 305 306
243 257 284 11 10 6 46 57 44 28 50 81 96 111 111 110 115 115 110 85 69 65 59 34 31 38 14 5 344 328 313 305 300 295 296 292 292 324 313 330 314 299 316 316
261 279 280 69 358 330 9 48 64 61 56 83 100 112 115 113 113 114 114 106 100 82 56 20 10 6 0 349 337 320 308 308 306 300 293 290 291 309 337 314 317 324 311 310
285 292 307 348 322 311 325 351 24 146 149 120 99 122 125 126 125 112 109 118 128 112 79 26 358 359 352 342 327 308 303 310 313 314 311 308 310 311 312 318 305 312 318 315
325 342 320 313 281 286 292 309 319 185 159 138 124 125 130 133 137 136 127 142 213 348 46 32 6 357 347 336 319 304 300 309 312 315 314 316 321 321 315 305 303 304 293 291
313 299 261 276 263 251 242 205 220 215 189 155 127 114 110 119 124 108 72 284 327 343 1 9 1 348 334 322 313 303 300 310 313 308 308 313 315 315 317 317 320 323 335 327
289 281 267 267 266 238 234 234 232 229 194 150 131 120 121 122 123 125 309 324 334 338 355 3 348 332 318 310 304 294 294 291 292 299 308 317 318 317 316 311 314 326 336 346
241 230 237 242 256 259 252 246 235 234 211 171 151 150 163 168 186 347 351 23 15 346 345 345 331 319 307 306 303 299 298 287 271 290 309 316 316 316 315 313 318 323 328 344
228 234 245 251 262 285 298 277 260 231 195 158 144 160 174 192 224 262 304 341 332 316 331 333 329 309 299 309 306 297 296 297 286 297 305 307 307 305 310 311 311 313 315 296
217 226 240 265 293 330 328 334 28 60 76 150 154 151 144 170 259 257 253 261 282 291 318 337 314 300 308 336 322 295 296 300 301 308 307 298 293 309 312 314 317 321 328 340
71 30 22 7 353 8 26 33 38 35 28 94 112 111 105 89 20 317 327 315 310 328 340 324 304 307 315 335 314 296 295 301 311 323 314 312 318 318 318 320 327 334 337 346
72 69 48 26 30 43 48 28 9 6 24 52 78 95 92 55 3 323 301 295 2 5 310 282 289 320 330 324 295 295 313 324 323 325 331 335 335 333 330 328 330 336 340 341
59 66 53 40 51 50 36 15 18 19 46 86 96 85 68 301 291 287 277 278 280 329 298 305 335 17 342 311 299 316 328 328 326 333 339 336 331 329 331 338 342 344 349 347
38 35 42 63 55 37 28 23 17 21 87 134 138 164 227 273 288 288 292 324 333 317 306 347 14 2 322 300 308 320 328 324 320 319 323 327 322 325 336 342 344 348 349 345
19 34 49 64 69 65 48 35 40 68 113 220 223 221 235 250 255 259 264 208 270 291 320 33 33 313 296 294 308 315 322 325 326 328 340 347 355 356 355 353 351 348 350 349
64 101 127 168 201 193 165 191 195 169 191 213 206 210 260 263 268 296 306 302 233 273 302 186 220 267 286 304 319 331 341 350 351 353 1 357 354 2 7 4 3 359 357 353
222 243 226 240 248 235 224 224 236 255 269 282 273 262 258 279 286 294 293 292 306 312 322 329 273 268 298 320 339 346 351 1 357 351 355 359 359 2 3 357 357 1 354 350
228 228 222 233 222 219 240 271 281 272 282 284 302 343 347 335 337 0 356 358 1 356 351 342 329 329 333 336 341 349 3 3 350 347 359 3 1 360 4 1 356 3 13 16